#timestamp,LO_Frequency,Hit,StdDev 
1541775615.1,286047002.5,N
1541775635.9,286047002.5,N
1541775655.7,286047004.3,Y
1541775675.6,286046999.8,P
1541775695.4,286047002.8,N
1541775715.2,286047001.8,N
1541775735.1,286047003.6,Y
1541775736.0,286047003.6,P
1541775755.8,286047001.6,N
1541775775.6,286047005.7,P
1541775795.5,286047005.0,N
1541775815.3,286047005.1,Y
1541775835.2,286047000.5,P
1541775855.9,286046998.7,N
1541775905.8,286046995.5,E
1541775915.7,286046997.0,N
1541775935.5,286046996.5,P
1541775955.4,286046997.9,P
1541775975.2,286046997.4,Y
1541775995.0,286047000.9,P
1541775995.9,286047000.9,N
1541776015.8,286046998.2,N
1541776035.6,286046998.1,N
1541776055.5,286046999.7,N
1541776075.3,286047000.3,N
1541776095.1,286047000.4,N
1541776115.9,286046998.3,N
1541776135.7,286046999.2,N
1541776155.5,286046999.2,N
1541776175.4,286046998.7,N
1541776195.2,286046998.6,N
1541776215.1,286046998.5,N
1541776216.0,286046998.5,N
1541776235.8,286047000.7,N
1541776255.6,286046998.8,N
1541776275.5,286046998.1,N
1541776295.3,286046998.5,N
1541776315.1,286046998.5,N
1541776335.9,286047000.8,N
1541776355.7,286047000.2,N
1541776375.6,286046999.9,N
1541776395.4,286047002.7,N
1541776415.2,286046999.8,N
1541776435.1,286047000.2,N
1541776436.0,286047000.2,N
1541776455.8,286046999.9,N
1541776475.6,286046999.9,N
1541776495.5,286047002.3,N
1541776515.3,286047001.5,N
1541776535.2,286047002.2,N
1541776555.9,286047004.4,Y
1541776575.7,286047003.6,P
1541776595.6,286047003.3,N
1541776615.4,286047005.5,P
1541776635.2,286047005.4,N
1541776655.1,286047005.7,N
1541776656.0,286047005.7,N
1541776675.8,286047005.2,N
1541776695.7,286047005.1,N
1541776715.5,286047006.4,Y
1541776735.3,286047002.7,P
1541776755.2,286047002.2,N
1541776775.0,286047002.7,N
1541776775.9,286047002.7,Y
1541776795.8,286046999.0,P
1541776815.6,286046996.8,N
1541776835.4,286046999.1,N
1541776855.3,286046998.5,N
1541776875.1,286046999.3,N
1541776895.9,286046998.9,N
1541776915.7,286046998.8,N
1541776935.5,286047000.0,N
1541776955.4,286047001.0,N
1541776975.2,286046999.0,N
1541776995.0,286046998.2,N
1541776995.9,286046998.2,N
1541777015.8,286046998.5,N
1541777035.6,286047001.1,N
1541777055.5,286047000.3,N
1541777075.3,286047002.3,N
1541777095.1,286047002.8,N
1541777115.9,286047000.1,N
1541777135.7,286047004.0,N
1541777155.5,286047004.0,N
1541777175.4,286047001.3,N
1541777195.2,286047002.2,N
1541777215.1,286047001.3,N
1541777216.0,286047001.3,N
1541777235.8,286047004.0,N
1541777255.6,286047003.9,N
1541777275.5,286047004.1,N
1541777295.3,286047004.2,N
1541777315.1,286047003.6,N
1541777335.9,286047005.7,N
1541777355.7,286047005.2,N
1541777375.6,286047003.4,N
1541777395.4,286047006.0,N
1541777415.2,286047003.5,N
1541777435.1,286047001.3,N
1541777436.0,286047001.3,N
1541777455.8,286047002.0,N
1541777475.7,286047001.6,N
1541777495.5,286046999.8,N
1541777515.3,286047001.5,N
1541777535.2,286047004.2,N
1541777555.9,286047001.7,N
1541777575.7,286047000.3,N
1541777595.6,286047000.8,N
1541777615.4,286047001.1,N
1541777635.2,286046998.6,N
1541777655.1,286047001.0,N
1541777656.0,286047001.0,N
1541777675.8,286047000.6,N
1541777695.7,286047000.1,N
1541777715.5,286047002.5,N
1541777735.3,286047004.4,N
1541777755.2,286047002.8,N
1541777775.0,286047002.5,N
1541777775.9,286047002.5,N
1541777795.8,286047001.6,N
1541777815.6,286046999.9,N
1541777835.4,286047001.9,N
1541777855.3,286047001.4,N
1541777875.1,286047004.1,N
1541777895.8,286047004.4,N
1541777915.7,286047001.9,N
1541777935.5,286047002.0,N
1541777955.3,286047002.2,N
1541777975.2,286047001.6,N
1541777995.0,286047003.2,N
1541777995.9,286047003.2,N
1541778015.8,286047003.5,N
1541778035.6,286047004.2,N
1541778055.4,286047005.6,Y
1541778075.3,286047004.4,P
1541778095.1,286047001.9,N
1541778115.9,286047001.6,N
1541778135.7,286047003.2,N
1541778155.5,286047005.1,Y
1541778175.4,286047003.8,P
1541778195.2,286047004.0,P
1541778215.0,286047004.1,P
1541778215.9,286047004.1,Y
1541778235.8,286047001.2,P
1541778255.6,286047002.3,N
1541778275.5,286047002.5,N
1541778295.3,286047002.7,Y
1541778315.1,286046998.0,P
1541778335.9,286046993.6,N
1541778355.7,286046992.7,N
1541778375.5,286046990.3,N
1541778395.4,286046988.6,N
1541778415.2,286046991.0,N
1541778435.1,286046989.3,N
1541778436.0,286046989.3,N
1541778455.8,286046987.4,N
1541778475.6,286046988.4,N
1541778495.5,286046986.6,Y
1541778515.3,286046993.8,P
1541778535.1,286046995.4,P
1541778555.9,286046995.7,P
1541778575.7,286046995.5,Y
1541778595.6,286047000.2,P
1541778615.4,286047002.8,N
1541778635.2,286047002.4,N
1541778655.1,286047000.7,N
1541778656.0,286047000.7,N
1541778675.8,286047001.2,N
1541778695.7,286047000.8,N
1541778715.5,286047000.8,N
1541778735.3,286047002.6,N
1541778755.2,286047002.3,N
1541778775.9,286047002.8,N
1541778795.7,286047001.5,N
1541778815.6,286047003.3,N
1541778835.4,286047003.0,N
1541778855.2,286047005.9,N
1541778875.1,286047003.3,N
1541778876.0,286047003.3,N
1541778895.8,286047003.4,N
1541778915.7,286047003.8,N
1541778935.5,286047005.4,N
1541778955.3,286047007.5,Y
1541778975.2,286047002.9,P
1541778995.0,286047005.8,P
1541778995.9,286047005.8,P
1541779015.8,286047003.3,N
1541779035.6,286047003.0,N
1541779055.4,286047001.7,N
1541779075.3,286047001.6,N
1541779095.1,286047001.5,N
1541779115.8,286047001.3,N
1541779135.7,286047001.8,N
1541779155.5,286047001.9,N
1541779175.4,286047001.8,N
1541779195.2,286047001.7,N
